Location: Goll?ig?dem
(16.6773°N, 80.7332°E)
Time: 01:00:38
(UTC+00:00)

SWIFT - Pass Details

Date: 21 April 2021
Orbit: 544 x 559 km, 20.6° (Epoch: 07 May)

Event Time Altitude Azimuth Distance (km) Brightness Sun altitude
Rises 13:22:42 0° 283° (WNW) 2,701 8.5 -7.5°
Reaches altitude 10° 13:25:01 10° 288° (WNW) 1,811 6.7 -8.0°
Maximum altitude 13:29:09 54° 6° (N) 669 2.8 -9.0°
Enters shadow 13:33:05 11° 83° (E) 1,739 4.3 -9.9°
